FW1957 Weather Reports


time (UTC)temp
C
wind
direction
speed
KPH
gust
KPH
rain 1hr
cm
rain 24hr
cm
rain mn
cm
humidity
%
barometer
mb
20260507214707 11 253 8.0 12.9 0.00 1.40 1.40 94 1013.6
20260507214206 11 241 8.0 11.3 0.00 1.40 1.40 94 1013.7
20260507213718 11 248 8.0 11.3 0.00 1.40 1.40 94 1013.7
20260507213220 11 250 6.4 11.3 0.00 1.40 1.40 94 1013.7
20260507212206 11 235 6.4 12.9 0.00 1.40 1.40 94 1013.9
20260507211717 11 238 6.4 12.9 0.00 1.40 1.40 94 1013.9
20260507211207 11 238 6.4 12.9 0.03 1.40 1.40 94 1013.9
20260507210716 11 259 8.0 14.5 0.03 1.40 1.40 94 1014.0
20260507210214 11 257 8.0 14.5 0.03 1.40 1.40 94 1014.0
20260507205720 11 238 9.7 14.5 0.03 1.40 1.40 94 1014.0
20260507205211 11 226 9.7 16.1 0.03 1.40 1.40 94 1014.0
20260507204709 11 231 9.7 19.3 0.03 1.40 1.40 94 1014.0
20260507204212 11 234 9.7 19.3 0.03 1.40 1.40 94 1014.0
20260507203216 11 200 8.0 16.1 0.05 1.40 1.40 94 1013.9
20260507202718 11 210 8.0 14.5 0.05 1.40 1.40 93 1014.0
20260507202220 11 187 6.4 17.7 0.05 1.40 1.40 93 1013.9
20260507201716 11 197 6.4 19.3 0.03 1.37 1.37 93 1013.9
20260507201219 11 201 8.0 19.3 0.05 1.37 1.37 94 1013.9
20260507200717 11 227 8.0 19.3 0.05 1.37 1.37 94 1013.9
20260507200220 11 223 8.0 16.1 0.05 1.37 1.37 94 1013.9
20260507195706 11 210 6.4 14.5 0.10 1.37 1.37 94 1013.9
20260507195241 11 180 6.4 19.3 0.13 1.37 1.37 94 1013.9
20260507194714 11 205 8.0 19.3 0.15 1.37 1.37 94 1013.9
20260507194211 11 180 9.7 19.3 0.18 1.37 1.37 94 1013.7
20260507193707 11 205 11.3 19.3 0.18 1.37 1.37 93 1013.7
20260507193220 11 213 11.3 22.5 0.20 1.37 1.37 93 1013.7
20260507192708 11 202 11.3 24.1 0.20 1.37 1.37 93 1013.6
20260507192218 11 205 12.9 24.1 0.23 1.37 1.37 93 1013.7
20260507191713 11 217 14.5 27.4 0.25 1.37 1.37 93 1013.6
20260507191219 11 220 14.5 27.4 0.28 1.35 1.35 93 1013.6
20260507190215 11 211 12.9 20.9 0.28 1.30 1.30 93 1013.4
20260507185713 11 199 11.3 20.9 0.28 1.27 1.27 93 1013.5
20260507185206 11 169 11.3 20.9 0.30 1.27 1.27 93 1013.4
20260507184705 11 199 9.7 20.9 0.30 1.22 1.22 93 1013.2
20260507184211 11 185 9.7 20.9 0.30 1.19 1.17 93 1013.2
20260507183716 11 206 9.7 24.1 0.33 1.17 1.17 93 1013.0
20260507183210 11 232 9.7 24.1 0.36 1.17 1.17 93 1013.0
20260507182212 11 213 12.9 22.5 0.41 1.12 1.12 93 1012.9
20260507181707 11 215 14.5 22.5 0.43 1.09 1.09 92 1012.9
20260507180716 11 192 12.9 24.1 0.48 1.04 1.04 92 1012.8
20260507180214 11 223 12.9 24.1 0.48 0.99 0.99 92 1012.8
20260507175718 11 235 14.5 24.1 0.48 0.99 0.99 92 1012.6
20260507175210 11 236 14.5 22.5 0.51 0.97 0.97 92 1012.7
20260507174235 11 226 14.5 20.9 0.48 0.89 0.89 92 1012.7
20260507173212 11 238 11.3 19.3 0.41 0.79 0.79 91 1012.9
20260507172717 11 205 9.7 22.5 0.38 0.76 0.76 91 1012.8
20260507171717 11 234 9.7 24.1 0.28 0.61 0.61 91 1012.9
20260507171219 12 155 11.3 24.1 0.25 0.61 0.61 91 1012.8
20260507170707 12 200 11.3 20.9 0.23 0.53 0.53 91 1012.7
20260507170207 12 227 9.7 14.5 0.20 0.51 0.51 91 1012.5
20260507165217 12 229 8.0 20.9 0.20 0.43 0.43 90 1012.3
20260507164707 12 178 9.7 20.9 0.20 0.43 0.43 90 1012.3
20260507164205 12 223 9.7 20.9 0.23 0.43 0.43 90 1012.3
20260507163220 12 217 11.3 16.1 0.23 0.38 0.38 90 1012.1
20260507162707 12 225 8.0 16.1 0.20 0.36 0.36 89 1012.0
20260507162215 13 213 6.4 14.5 0.23 0.36 0.36 89 1011.9
20260507161720 13 184 8.0 14.5 0.28 0.33 0.33 89 1012.0
20260507161208 13 243 8.0 16.1 0.30 0.33 0.33 88 1011.9
20260507160711 13 242 9.7 16.1 0.28 0.33 0.33 88 1011.8
20260507155717 13 254 9.7 19.3 0.23 0.25 0.25 86 1011.7
20260507155217 13 279 9.7 20.9 0.20 0.23 0.23 85 1011.7
20260507154707 13 270 11.3 24.1 0.15 0.20 0.20 84 1011.6
20260507154211 14 239 9.7 24.1 0.15 0.20 0.20 83 1011.5
20260507153709 14 251 12.9 24.1 0.15 0.18 0.18 82 1011.5
20260507153210 14 254 14.5 24.1 0.13 0.15 0.15 81 1011.4
20260507152716 15 298 11.3 19.3 0.10 0.15 0.15 79 1011.3
20260507152214 15 267 8.0 16.1 0.05 0.10 0.10 79 1011.3
20260507151705 16 296 9.7 16.1 0.03 0.05 0.05 78 1011.2
20260507151211 16 279 11.3 14.5 0.00 0.05 0.05 75 1011.2
20260507150714 16 269 9.7 14.5 0.00 0.05 0.05 72 1011.1
20260507150213 16 259 8.0 12.9 0.00 0.05 0.05 70 1011.0
20260507145713 16 248 6.4 12.9 0.00 0.05 0.05 68 1011.0
20260507145216 16 246 4.8 6.4 0.00 0.05 0.05 68 1010.9
20260507144715 16 263 1.6 4.8 0.00 0.05 0.05 66 1010.9
20260507143714 16 218 1.6 4.8 0.00 0.05 0.05 65 1010.7
20260507143217 17 218 3.2 4.8 0.00 0.05 0.05 66 1010.7
20260507142205 16 234 1.6 3.2 0.00 0.05 0.05 66 1010.8
20260507141718 16 0 1.6 3.2 0.00 0.05 0.05 64 1010.8
20260507140711 16 0 1.6 4.8 0.00 0.05 0.05 64 1010.9
20260507140206 16 0 3.2 4.8 0.00 0.05 0.05 66 1011.0
20260507135719 16 25 3.2 4.8 0.00 0.05 0.05 66 1010.9
20260507135216 16 326 1.6 4.8 0.00 0.05 0.05 65 1010.9
20260507134712 16 194 1.6 9.7 0.00 0.05 0.05 67 1010.9
20260507133210 16 157 4.8 14.5 0.00 0.05 0.05 69 1011.1
20260507132708 16 137 6.4 14.5 0.00 0.05 0.05 71 1011.2
20260507132215 16 137 6.4 12.9 0.03 0.05 0.05 73 1011.2
20260507131707 16 173 4.8 11.3 0.03 0.05 0.05 74 1011.2
20260507131245 16 174 6.4 12.9 0.05 0.05 0.05 75 1011.3
20260507130708 16 178 6.4 12.9 0.05 0.05 0.05 75 1011.4
20260507130216 16 151 6.4 12.9 0.05 0.05 0.05 77 1011.4
20260507125714 16 200 4.8 9.7 0.05 0.05 0.05 77 1011.3
20260507125213 15 190 3.2 6.4 0.05 0.05 0.05 77 1011.4
20260507124706 15 213 3.2 6.4 0.05 0.05 0.05 77 1011.3
20260507124238 15 233 3.2 6.4 0.05 0.05 0.05 77 1011.3
20260507123715 15 236 1.6 11.3 0.05 0.05 0.05 77 1011.4
20260507123210 15 219 3.2 14.5 0.05 0.05 0.05 77 1011.4
20260507122231 15 255 9.7 17.7 0.03 0.03 0.03 76 1011.4
20260507121717 15 251 12.9 17.7 0.03 0.03 0.03 75 1011.5
20260507121211 16 238 12.9 17.7 0.00 0.00 0.00 74 1011.5
20260507120719 16 238 12.9 17.7 0.00 0.00 0.00 73 1011.4
20260507120213 16 246 11.3 17.7 0.00 0.00 0.00 70 1011.4
20260507115713 17 246 8.0 14.5 0.00 0.00 0.00 68 1011.4
20260507114715 17 288 6.4 12.9 0.00 0.00 0.00 62 1011.3
20260507114212 17 315 4.8 12.9 0.00 0.00 0.00 62 1011.2
20260507113717 17 319 6.4 14.5 0.00 0.00 0.00 59 1011.1
20260507113218 17 5 8.0 14.5 0.00 0.00 0.00 57 1011.2
20260507112711 17 31 9.7 17.7 0.00 0.00 0.00 57 1011.1
20260507112207 18 323 8.0 17.7 0.00 0.00 0.00 58 1011.1
20260507111215 18 338 6.4 16.1 0.00 0.00 0.00 54 1011.1
20260507110709 18 17 6.4 17.7 0.00 0.00 0.00 53 1011.1
20260507105720 18 0 9.7 17.7 0.00 0.00 0.00 53 1011.2
20260507105217 18 337 6.4 17.7 0.00 0.00 0.00 53 1011.2
20260507104706 18 24 4.8 12.9 0.00 0.00 0.00 53 1011.2
20260507104210 18 53 4.8 14.5 0.00 0.00 0.00 54 1011.2
20260507103713 18 14 6.4 14.5 0.00 0.00 0.00 53 1011.2
20260507103216 18 22 6.4 14.5 0.00 0.00 0.00 54 1011.3
20260507102208 17 80 4.8 12.9 0.00 0.00 0.00 55 1011.5
20260507101718 17 86 6.4 12.9 0.00 0.00 0.00 56 1011.6
20260507101210 17 96 6.4 14.5 0.00 0.00 0.00 55 1011.5
20260507100710 17 114 6.4 14.5 0.00 0.00 0.00 57 1011.6
20260507100213 17 96 8.0 14.5 0.00 0.00 0.00 58 1011.6
20260507095719 17 88 8.0 14.5 0.00 0.00 0.00 58 1011.5
20260507095215 17 79 9.7 14.5 0.00 0.00 0.00 59 1011.4
20260507094713 17 78 8.0 14.5 0.00 0.00 0.00 60 1011.4
20260507094216 17 108 8.0 17.7 0.00 0.00 0.00 61 1011.4
20260507093709 17 85 9.7 17.7 0.00 0.00 0.00 60 1011.4
20260507093209 17 113 11.3 17.7 0.00 0.00 0.00 60 1011.4
20260507092707 17 108 11.3 17.7 0.00 0.00 0.00 62 1011.4
20260507092207 17 109 11.3 19.3 0.00 0.00 0.00 63 1011.3
20260507091715 17 100 11.3 19.3 0.00 0.00 0.00 64 1011.3
20260507090712 17 130 11.3 17.7 0.00 0.00 0.00 64 1011.4
20260507090206 17 138 11.3 17.7 0.00 0.00 0.00 62 1011.3
20260507085720 17 128 9.7 17.7 0.00 0.00 0.00 61 1011.2
20260507085212 17 142 6.4 17.7 0.00 0.00 0.00 61 1011.1
20260507084209 17 162 8.0 16.1 0.00 0.00 0.00 60 1011.1
20260507083717 17 157 8.0 12.9 0.00 0.00 0.00 61 1011.0
20260507083213 16 150 4.8 16.1 0.00 0.00 0.00 57 1010.9
20260507082719 16 283 3.2 19.3 0.00 0.00 0.00 56 1010.9
20260507082218 16 262 6.4 20.9 0.00 0.00 0.00 56 1010.7
20260507081217 16 162 11.3 20.9 0.00 0.00 0.00 62 1010.6
20260507080718 17 225 11.3 16.1 0.00 0.00 0.00 55 1010.4
20260507080217 17 250 9.7 16.1 0.00 0.00 0.00 53 1010.4
20260507075206 16 267 11.3 16.1 0.00 0.00 0.00 53 1010.4
20260507074716 16 258 9.7 16.1 0.00 0.00 0.00 52 1010.4
20260507074205 16 294 8.0 14.5 0.00 0.00 0.00 54 1010.4
20260507073714 16 261 6.4 14.5 0.00 0.00 0.00 53 1010.4
20260507073221 16 290 6.4 16.1 0.00 0.00 0.00 54 1010.4
20260507071715 16 254 6.4 9.7 0.00 0.00 0.00 53 1010.2
20260507071212 16 248 3.2 6.4 0.00 0.00 0.00 53 1010.0
20260507070710 16 255 1.6 4.8 0.00 0.00 0.00 54 1010.0
20260507070210 16 308 3.2 6.4 0.00 0.00 0.00 54 1010.0
20260507065714 16 235 3.2 9.7 0.00 0.00 0.00 54 1009.9
20260507065210 16 246 3.2 11.3 0.00 0.00 0.00 54 1010.0
20260507064713 16 246 4.8 11.3 0.00 0.00 0.00 54 1009.9
20260507064213 16 253 6.4 11.3 0.00 0.00 0.00 54 1009.9
20260507063711 16 252 6.4 11.3 0.00 0.00 0.00 56 1010.0
20260507063210 16 264 3.2 12.9 0.00 0.00 0.00 56 1009.9
20260507062708 16 238 4.8 12.9 0.00 0.00 0.00 56 1009.8
20260507062208 16 277 8.0 12.9 0.00 0.00 0.00 56 1009.8
20260507061207 16 244 8.0 14.5 0.00 0.00 0.00 56 1009.8
20260507060715 16 261 8.0 14.5 0.00 0.00 0.00 56 1009.8
20260507060220 16 252 4.8 9.7 0.00 0.00 0.00 57 1009.7
20260507055708 16 221 4.8 9.7 0.00 0.00 0.00 57 1009.6
20260507054714 16 209 3.2 6.4 0.00 0.00 0.00 57 1009.5
20260507054221 16 209 3.2 4.8 0.00 0.00 0.00 58 1009.4
20260507053711 16 221 1.6 8.0 0.00 0.00 0.00 59 1009.3
20260507053207 16 180 1.6 8.0 0.00 0.00 0.00 59 1009.2
20260507052716 16 198 3.2 8.0 0.00 0.00 0.00 59 1009.2
20260507052216 16 204 3.2 8.0 0.00 0.00 0.00 59 1009.1
20260507051711 16 203 1.6 6.4 0.00 0.00 0.00 57 1009.1
20260507051207 16 184 3.2 6.4 0.00 0.00 0.00 58 1009.1
20260507050216 16 215 1.6 6.4 0.00 0.00 0.00 60 1008.9
20260507045719 16 155 1.6 8.0 0.00 0.00 0.00 60 1008.9
20260507045219 16 193 1.6 8.0 0.00 0.00 0.00 60 1008.8
20260507044715 16 155 4.8 8.0 0.00 0.00 0.00 59 1008.7
20260507042715 15 107 1.6 14.5 0.00 0.00 0.00 58 1008.4
20260507042216 15 229 3.2 14.5 0.00 0.00 0.00 58 1008.3
20260507041719 15 344 3.2 14.5 0.00 0.00 0.00 57 1008.2
20260507041206 15 248 4.8 12.9 0.00 0.00 0.00 58 1008.0
20260507040709 15 276 4.8 12.9 0.00 0.00 0.00 58 1008.0
20260507035713 15 258 1.6 8.0 0.00 0.00 0.00 59 1007.8
20260507035209 15 295 3.2 8.0 0.00 0.00 0.00 60 1007.7
20260507034710 15 262 3.2 9.7 0.00 0.00 0.00 60 1007.8
20260507032706 15 257 6.4 16.1 0.00 0.00 0.00 60 1007.8
20260507032210 15 278 8.0 16.1 0.00 0.00 0.00 60 1007.8
20260507031714 15 272 8.0 16.1 0.00 0.00 0.00 60 1007.8
20260507031214 15 304 6.4 16.1 0.00 0.00 0.00 61 1007.8
20260507030214 15 297 6.4 16.1 0.00 0.00 0.00 62 1007.6
20260507025715 15 300 6.4 16.1 0.00 0.00 0.00 62 1007.5
20260507025212 15 267 8.0 17.7 0.00 0.00 0.00 63 1007.4
20260507023713 15 325 8.0 17.7 0.00 0.00 0.00 63 1007.5
20260507023219 15 303 8.0 19.3 0.00 0.00 0.00 63 1007.5
20260507022713 15 331 8.0 19.3 0.00 0.00 0.00 63 1007.6
20260507021716 15 339 8.0 14.5 0.00 0.00 0.00 63 1007.5
20260507021217 15 334 8.0 14.5 0.00 0.00 0.00 63 1007.4
20260507020705 15 327 6.4 14.5 0.00 0.00 0.00 63 1007.5
20260507020218 15 338 6.4 19.3 0.00 0.00 0.00 63 1007.5
20260507015711 15 347 8.0 19.3 0.00 0.00 0.00 63 1007.5
20260507015217 15 344 9.7 19.3 0.00 0.00 0.00 63 1007.4
20260507014710 15 294 11.3 19.3 0.00 0.00 0.00 63 1007.4
20260507014217 15 315 9.7 19.3 0.00 0.00 0.00 63 1007.4
20260507013709 15 345 9.7 19.3 0.00 0.00 0.00 63 1007.3
20260507013211 15 295 6.4 19.3 0.00 0.00 0.00 63 1007.3
20260507012706 15 355 8.0 24.1 0.00 0.00 0.00 63 1007.2
20260507012209 15 311 11.3 24.1 0.00 0.00 0.00 63 1007.3
20260507011210 15 315 11.3 22.5 0.00 0.00 0.00 63 1007.3
20260507010218 16 341 12.9 24.1 0.00 0.00 0.00 64 1007.1
20260507005706 16 320 12.9 24.1 0.00 0.00 0.00 64 1007.0
20260507005212 16 343 12.9 22.5 0.00 0.00 0.00 64 1007.0
20260507004709 16 340 12.9 24.1 0.00 0.00 0.00 64 1007.0
20260507004213 16 338 12.9 25.7 0.00 0.00 0.00 65 1006.9
20260507003712 16 313 12.9 25.7 0.00 0.00 0.00 65 1006.9
20260507003218 16 330 12.9 25.7 0.00 0.00 0.00 66 1006.9
20260507002715 16 323 12.9 22.5 0.00 0.00 0.00 67 1006.9
20260507002212 16 311 11.3 22.5 0.00 0.00 0.00 68 1006.9
20260507001708 16 303 8.0 16.1 0.00 0.00 0.00 68 1006.8
20260507001207 16 303 8.0 19.3 0.00 0.00 0.00 68 1006.8
20260507000709 16 11 11.3 19.3 0.00 0.00 0.00 68 1006.8
20260507000208 16 12 11.3 19.3 0.00 0.00 0.00 68 1006.8
20260506235719 16 13 9.7 19.3 0.00 0.00 0.00 68 1006.8
20260506235217 16 337 6.4 19.3 0.00 0.00 0.00 68 1006.8
20260506234715 16 323 3.2 12.9 0.00 0.00 0.00 66 1006.7
20260506234218 16 15 4.8 12.9 0.00 0.00 0.00 66 1006.7
20260506233709 16 0 4.8 12.9 0.00 0.00 0.00 66 1006.7
20260506233218 16 330 6.4 14.5 0.00 0.00 0.00 66 1006.6
20260506232708 16 30 8.0 14.5 0.00 0.00 0.00 65 1006.2
20260506232215 16 15 6.4 11.3 0.00 0.00 0.00 65 1006.1
20260506230718 16 55 6.4 11.3 0.00 0.00 0.00 63 1006.1
20260506230209 16 49 4.8 8.0 0.00 0.00 0.00 63 1006.0
20260506225709 16 10 3.2 8.0 0.00 0.00 0.00 62 1006.0
20260506225209 16 5 3.2 14.5 0.00 0.00 0.00 62 1005.9
20260506224708 16 355 4.8 14.5 0.00 0.00 0.00 62 1005.8
20260506224210 16 332 4.8 14.5 0.00 0.00 0.00 62 1005.7
20260506223210 16 205 3.2 6.4 0.00 0.00 0.00 63 1005.4
20260506222209 17 180 3.2 9.7 0.00 0.00 0.00 63 1005.2
20260506221719 17 183 3.2 14.5 0.00 0.00 0.00 63 1005.1
20260506221214 17 178 4.8 14.5 0.00 0.00 0.00 62 1005.1
20260506220710 17 212 8.0 16.1 0.00 0.00 0.00 62 1005.0
20260506220214 17 232 9.7 16.1 0.00 0.00 0.00 62 1004.9
20260506215709 17 225 9.7 16.1 0.00 0.00 0.00 63 1004.8
20260506215211 17 225 6.4 12.9 0.00 0.00 0.00 63 1004.7